Location: Pewsey
(51.3333°N, 1.7500°W)
Time: 16:07:26
(UTC+00:00)

Daily predictions for brighter satellites

Satellite Brightness Start Highest point End
(mag) Time Altitude Azimuth Time Altitude Azimuth Time Altitude Azimuth
USA 215 3.9 21:01:39 10° ENE 21:07:24 32° SE 21:13:08 10° SSW
ATLAS 5 CENTAUR R/B 1.7 21:07:08 10° SSW 21:11:10 49° SE 21:15:42 10° NE
Cosmos 1844 Rocket 2.9 21:06:17 10° NNW 21:11:51 69° WSW 21:17:22 10° SSE
Gblst 52 Del rocket 4.3 21:06:58 10° W 21:12:34 80° SSW 21:18:46 10° ESE
Cosmos 1400 Rocket 2.8 21:08:49 10° NNW 21:12:52 90° SE 21:16:48 10° S
USA 245 3.4 21:09:33 10° S 21:12:56 76° WSW 21:17:16 10° NNW
Cosmos 1758 Rocket 3.6 21:11:18 10° S 21:15:48 81° E 21:20:19 10° NNE
Meteor 2-10 Rocket 4.3 21:10:56 10° NNW 21:15:51 51° W 21:20:55 10° S
Lacrosse 5 rocket 2.8 21:14:44 10° W 21:18:48 41° NNW 21:22:40 10° ENE
SPOT 5 3.1 21:14:32 10° SSE 21:19:28 60° ENE 21:24:11 10° N
BREEZE-M DEB (TANK) 4.2 21:15:35 10° W 21:19:30 77° S 21:34:09 10° E
Spot 2 Rocket 3.9 21:18:17 10° S 21:23:21 66° WSW 21:28:28 10° NNW
USA 81 4.4 21:20:49 10° SSE 21:25:52 49° E 21:30:58 10° NNE
BREEZE M DEB (TANK) 3.2 21:23:34 10° W 21:26:02 25° SSW 21:27:39 11° SSE
Cosmos 2181 Rocket 4.1 21:21:16 10° N 21:27:39 70° ENE 21:33:52 10° SSE
Landsat 7 4.2 21:23:08 10° S 21:27:51 63° WSW 21:32:36 10° NNW
SPOT 1/Viking Rocket 3.9 21:32:51 10° S 21:37:58 64° WSW 21:43:08 10° NNW
Cosmos 1953 Rocket 3.5 21:34:35 10° S 21:38:55 77° E 21:43:15 10° NNE
NOSS 7 (D) 4.3 21:37:27 10° SW 21:40:11 61° NW 21:42:50 10° NE
CZ-4C R/B 4.4 21:36:17 10° NW 21:41:44 30° N 21:48:05 10° ENE
USA 267 3.4 21:35:20 10° ESE 21:41:55 84° NNE 21:48:30 10° WNW
SAR-Lupe-2 3.5 21:39:25 10° NNE 21:43:02 89° ESE 21:46:38 10° SSW
Cosmos 1328 4.2 21:39:45 10° SSW 21:43:41 63° WNW 21:47:40 10° N
Cosmos 2084 3.6 21:39:36 10° NW 21:44:05 81° SW 21:48:05 13° SE
Cosmos 1842 Rocket 3.9 21:41:00 10° N 21:45:17 53° ENE 21:49:02 13° SSE
Cosmos 2322 Rocket 3.6 21:40:34 10° WSW 21:45:54 43° NW 21:51:17 10° NNE
Cosmos 1455 4.2 21:42:56 10° NNW 21:46:07 25° W 21:49:18 10° SW
Cosmos 1825 Rocket 4.4 21:50:20 10° SSW 21:54:40 53° WNW 21:59:05 10° N
ATLAS CENTAUR R/B 1.2 21:51:56 10° NW 21:55:36 63° SW 21:58:26 16° SSE
Cosmos 1825 4.4 21:58:17 10° ESE 21:59:59 13° E 22:01:42 10° ENE
COSMOS 2428 2.7 22:00:03 10° SSW 22:05:39 65° ESE 22:11:18 10° NE
Cosmos 1869 3.3 22:02:18 10° N 22:06:18 70° E 22:09:22 16° SSE
Cosmos 2322 3.9 22:03:49 10° SSW 22:09:33 79° WNW 22:15:19 10° NNE
NOSS 3-4 (A) 4.0 22:05:39 10° NW 22:12:29 75° NE 22:19:47 11° SE
NOSS 3-4 (C) 4.0 22:05:46 10° NW 22:12:35 74° NE 22:19:55 11° SE
NOSS 0 Rocket 4.4 22:07:31 10° S 22:13:11 43° ESE 22:18:58 10° NE
Terra 2.1 22:10:34 13° S 22:14:49 63° WSW 22:19:34 10° NNW
Cosmos 2237 Rocket 2.9 22:14:58 15° SSE 22:19:10 36° ESE 22:24:21 10° NE
BREEZE-M DEB 4.3 22:15:39 10° W 22:19:29 54° SSW 22:33:19 10° ESE
Atlas Centaur 2 4.4 22:19:49 10° SSW 22:21:12 11° S 22:21:21 11° S
Cosmos 2219 Rocket 2.2 22:15:50 10° SSW 22:21:27 90° ESE 22:27:06 10° NNE
Cosmos 2344 4.3 22:16:02 13° S 22:21:37 32° ESE 22:28:23 10° NE
Cosmos 1538 Rocket 4.1 22:17:23 10° SSW 22:22:45 86° WNW 22:28:07 10° NNE
Cosmos 2360 Rocket 3.6 22:18:26 10° WSW 22:23:46 41° NW 22:29:09 10° NNE
NOSS 3-3 (A) 3.9 22:18:00 10° SSW 22:23:54 74° SE 22:30:39 10° NE
NOSS 3-3 (C) 3.9 22:18:06 10° SSW 22:24:02 73° SE 22:30:46 10° NE
Cosmos 1315 Rocket 3.9 22:22:34 10° NNW 22:26:25 41° W 22:29:55 12° SSW
Thor Agena Rocket 4.1 22:25:15 10° NNE 22:30:04 39° E 22:33:18 19° SSE
Meteor 2-2 Rocket 4.4 22:25:27 10° NNW 22:31:18 76° W 22:35:55 16° S
Cosmos 2333 Rocket 2.4 22:25:54 10° SW 22:31:36 75° WNW 22:37:22 10° NNE
Cosmos 2184 Rocket 4.0 22:27:10 12° S 22:33:05 86° E 22:39:27 10° N
Cosmos 2221 2.9 22:31:44 10° NNW 22:36:04 59° W 22:39:20 17° S
BREEZE-M DEB (TANK) 1.8 22:34:57 10° W 22:39:45 60° SSW 22:41:22 20° ESE
Iridium 2 4.0 22:36:29 10° N 22:40:16 55° E 22:42:26 23° SSE
Cosmos 1371 Rocket 4.2 22:35:09 10° NNW 22:40:25 70° ENE 22:44:15 19° SE
ATLAS 2AS CENTAUR R/B 2.9 22:32:45 10° NW 22:40:30 90° SW 22:46:25 16° SE
GEOS 3 Rocket 4.5 22:36:38 10° NE 22:41:55 56° NW 22:47:10 10° WSW
EO 1 Del DPAF 3.9 22:39:38 10° NNE 22:43:12 39° E 22:45:00 23° SSE
Cosmos 1892 2.6 22:41:59 20° S 22:44:30 83° E 22:48:20 10° NNE
Aureole 2 Rocket 3.2 22:44:59 10° N 22:47:33 32° ENE 22:48:59 20° ESE
Cosmos 1606 3.9 22:46:34 10° N 22:50:07 33° ENE 22:52:19 19° SE
USA 215 3.2 22:44:25 10° ENE 22:51:01 83° SSE 22:57:36 10° WSW
Cosmos 2278 Rocket 2.6 22:45:34 10° NW 22:51:07 55° WSW 22:54:59 19° S
Cosmos 2112 Rocket 4.2 22:48:24 19° S 22:52:10 55° ESE 22:57:25 10° NNE
Cosmos 2297 4.2 22:46:53 10° NNW 22:52:35 58° NE 22:57:11 15° SE
ATLAS 5 CENTAUR R/B 3.3 22:51:52 10° W 22:55:57 37° NNW 23:00:37 10° NE
Cosmos 158 Rocket 3.9 22:52:56 19° S 22:56:19 61° ESE 23:01:12 10° NNE
Lacrosse 5 rocket 2.7 22:54:41 10° WNW 22:58:36 39° N 23:02:18 10° E
Cosmos 1943 Rocket 3.4 22:53:46 10° NNW 22:59:03 37° NE 23:04:16 10° ESE
Spot 4 3.8 22:59:07 22° SSE 23:02:12 83° WSW 23:07:01 10° NNW
SL-16 R/B 3.1 23:00:47 20° SSE 23:03:34 31° ESE 23:08:30 10° NE
Cosmos 2058 3.2 23:01:11 17° SSW 23:04:16 64° WNW 23:08:24 10° N
Cosmos 2056 Rocket 3.6 22:58:56 10° NNW 23:04:23 90° WSW 23:07:58 22° SSE
Cosmos 1408 2.4 23:03:24 26° S 23:05:19 89° E 23:08:55 10° N
Nadezhda 3 Rocket 4.3 23:02:55 10° NNW 23:09:14 66° W 23:13:54 19° S
Cosmos 2154 Rocket 4.1 23:07:49 16° SSW 23:12:59 76° W 23:19:15 10° N
Cosmos 2341 Rocket 4.0 23:11:46 21° S 23:16:04 70° E 23:22:15 10° NNE
Cosmos 1076 Rocket 4.0 23:12:54 17° SSW 23:16:06 56° WNW 23:20:19 10° N
Cosmos 1680 Rocket 3.6 23:15:57 14° SSW 23:20:31 82° WNW 23:25:54 10° NNE
USA 267 3.8 23:21:24 21° SSE 23:25:19 42° SW 23:31:30 10° WNW
Cosmos 2151 2.9 23:23:52 26° S 23:26:16 87° E 23:30:34 10° N
Helios 1A 3.7 23:24:53 21° SE 23:27:20 46° ENE 23:31:21 10° N
Cosmos 1452 Rocket 3.8 23:26:10 10° NNW 23:31:25 62° ENE 23:35:06 19° SE
CZ-4C R/B 3.6 23:25:10 10° NW 23:31:45 52° NNE 23:39:28 10° ESE
BREEZE-M DEB (TANK) 4.3 23:30:12 10° W 23:32:17 13° WSW 23:32:45 13° SW
COSMOS 2455 3.2 23:27:02 10° NW 23:33:04 66° NE 23:38:24 13° SE
Cosmos 1825 2.4 23:32:56 25° SSW 23:34:58 64° WNW 23:38:46 10° N
SL-8 Rocket 4.0 23:30:59 23° S 23:35:00 72° E 23:41:10 10° NNE
IRIDIUM 114 4.4 23:32:35 25° SSE 23:35:39 68° E 23:40:51 10° N
Cosmos 1340 3.3 23:34:23 29° SE 23:35:46 41° E 23:39:20 10° NNE
Cosmos 1933 3.3 23:32:16 10° N 23:36:19 78° ENE 23:38:13 30° SSE
ALOS 2 2.6 23:35:27 28° S 23:37:44 72° WSW 23:42:09 10° NNW
Cosmos 1151 Rocket 3.0 23:33:29 10° N 23:37:52 86° E 23:40:03 29° SSE
Cosmos 1408 Rocket 4.1 23:35:56 26° SSE 23:37:59 47° E 23:42:14 10° NNE
APEX 2.5 23:40:52 10° NNW 23:43:36 66° ENE 23:44:22 41° SE
Cosmos 2369 Rocket 2.9 23:38:17 10° NNW 23:43:45 51° NE 23:48:49 12° SE
Cosmos 1727 Rocket 4.2 23:37:36 10° N 23:43:49 65° ENE 23:48:04 21° SSE
Cosmos 1980 4.2 23:39:11 10° SW 23:44:46 59° NW 23:50:22 10° NNE
IRIDIUM 103 4.3 23:41:42 25° S 23:44:46 80° E 23:50:02 10° N
Cosmos 44 3.2 23:43:38 28° S 23:45:36 53° SE 23:49:58 10° NE
GP-B 3.1 23:42:02 10° N 23:46:29 81° W 23:48:50 28° S
Cosmos 371 Rocket 3.3 23:42:51 10° NNW 23:47:44 80° WSW 23:50:25 27° SSE
SL-4 R/B 0.6 23:48:59 66° NNW 23:48:59 66° NNW 23:50:51 10° NNW
COSMOS 2428 4.5 23:45:22 10° WSW 23:50:22 31° NW 23:55:24 10° NNE
Helios 1B rocket 4.1 23:50:26 10° NE 23:53:41 22° E 23:55:23 17° SE
CREW DRAGON DEMO-1 DEB 2.9 23:54:49 48° S 23:55:06 50° SSE 23:58:06 10° E
